Location: Barcelona
(41.3830°N, 2.1830°E)
Time: 20:39:26
(UTC+01:00)

ISS - Pass Details

Date: 23 February 2021
Orbit: 417 x 422 km, 51.6° (Epoch: 26 February)

Event Time Altitude Azimuth Distance (km) Brightness Sun altitude
Exits shadow 06:20:53 31° 263° (W) 759 -3.0 -14.6°
Maximum altitude 06:22:13 56° 328° (NNW) 499 -3.6 -14.4°
Drops below altitude 10° 06:25:32 10° 48° (NE) 1,498 -0.3 -13.7°
Sets 06:27:40 0° 53° (NE) 2,365 0.9 -13.3°
